NORTHEAST SUFFOLK  -  Winter Weather Advisory Winter Weather Advisory        NORTHERN NASSAU  -  Winter Weather Advisory Winter Weather Advisory        NORTHWEST SUFFOLK  -  Winter Weather Advisory Winter Weather Advisory        SOUTHEAST SUFFOLK  -  Winter Weather Advisory Winter Weather Advisory        SOUTHERN NASSAU  -  Winter Weather Advisory Winter Weather Advisory        SOUTHWEST SUFFOLK  -  Winter Weather Advisory Winter Weather Advisory      

Active alerts

Northern Nassau
  Details for Northern Nassau Winter Weather Advisory
Southern Nassau
  Details for Southern Nassau Winter Weather Advisory
Northwest Suffolk
  Details for Northwest Suffolk Winter Weather Advisory
Southwest Suffolk
  Details for Southwest Suffolk Winter Weather Advisory
Northeast Suffolk
  Details for Northeast Suffolk Winter Weather Advisory
Southeast Suffolk
  Details for Southeast Suffolk Winter Weather Advisory


WXM80 ListenWXM80 Stop

You find our weather info also at:

UK Metoffice

WeatherCloud

Weather Underground

Northeastern Weather Network

AWEKAS

Citizen Weather Observer Program (CWOP)

HAMweather, WeatherForYou, PWS Weather


Weather Underground History page Text

Daily Summary for September 18, 2016 Units:  English    Metric   Both
« Previous Day
Next Day »
Daily Weekly Monthly Yearly Custom
  High: Low: Average:
Temperature: 83.0 °F 69.1 °F 75.4 °F
Dew Point: 74.1 °F 66.9 °F 70.9 °F
Humidity: 96 % 72 % 86 %
Wind Speed: 7.0 mph 0.0 mph 1.4 mph
Wind Gust: 12.0 mph - -
Wind:- - SSW
Pressure: 30.07 in 29.97 in -
Precipitation: 0.00 in    
Historical Graphs
 
 
Tabular Data for September 18, 2016
Time Temperature Dew Point Pressure Wind Wind Speed Wind Gust Humidity Rainfall Rate (Hourly)
00:01 69.3 °F 66.9 °F 30.06 in SSE 0.5 mph 3.5 mph 92 % 0.00 in
00:06 69.3 °F 67.2 °F 30.06 in SSE 1.0 mph 2.3 mph 93 % 0.00 in
00:11 69.3 °F 67.2 °F 30.06 in SW 1.3 mph 3.5 mph 93 % 0.00 in
00:16 69.3 °F 66.9 °F 30.06 in SW 0.2 mph 2.3 mph 92 % 0.00 in
00:21 69.3 °F 67.2 °F 30.06 in SW 0.9 mph 3.5 mph 93 % 0.00 in
00:26 69.2 °F 67.1 °F 30.06 in WSW 0.8 mph 2.3 mph 93 % 0.00 in
00:31 69.2 °F 67.1 °F 30.06 in SSW 0.2 mph 2.3 mph 93 % 0.00 in
00:36 69.2 °F 67.1 °F 30.06 in SW 0.8 mph 2.3 mph 93 % 0.00 in
00:41 69.2 °F 67.1 °F 30.06 in SW 1.0 mph 3.5 mph 93 % 0.00 in
00:46 69.2 °F 67.1 °F 30.06 in SW 0.3 mph 3.0 mph 93 % 0.00 in
00:51 69.2 °F 67.1 °F 30.06 in WSW 1.0 mph 3.5 mph 93 % 0.00 in
00:57 69.2 °F 67.1 °F 30.07 in SSW 1.3 mph 3.5 mph 93 % 0.00 in
01:02 69.2 °F 67.1 °F 30.06 in Calm   1.2 mph 93 % 0.00 in
01:07 69.2 °F 67.1 °F 30.06 in SSW 0.2 mph 2.3 mph 93 % 0.00 in
01:12 69.1 °F 67.0 °F 30.06 in SW 0.7 mph 2.3 mph 93 % 0.00 in
01:17 69.1 °F 67.0 °F 30.06 in SW 0.3 mph 2.0 mph 93 % 0.00 in
01:22 69.1 °F 67.0 °F 30.05 in SSW 0.2 mph 1.2 mph 93 % 0.00 in
01:27 69.1 °F 67.3 °F 30.06 in Calm     94 % 0.00 in
01:32 69.1 °F 67.3 °F 30.06 in SSW 0.7 mph 3.5 mph 94 % 0.00 in
01:37 69.1 °F 67.3 °F 30.06 in SW 0.5 mph 4.6 mph 94 % 0.00 in
01:42 69.1 °F 67.3 °F 30.05 in WSW 1.9 mph 2.3 mph 94 % 0.00 in
01:48 69.1 °F 67.3 °F 30.06 in SSW 0.5 mph 1.2 mph 94 % 0.00 in
01:53 69.2 °F 67.4 °F 30.05 in SSW 0.7 mph 3.5 mph 94 % 0.00 in
01:58 69.2 °F 67.4 °F 30.05 in SW 0.6 mph 2.3 mph 94 % 0.00 in
02:03 69.2 °F 67.4 °F 30.05 in SW 0.1 mph 1.2 mph 94 % 0.00 in
02:08 69.2 °F 67.4 °F 30.04 in SSW 0.4 mph 2.3 mph 94 % 0.00 in
02:13 69.2 °F 67.4 °F 30.05 in SSW 1.2 mph 3.5 mph 94 % 0.00 in
02:23 69.2 °F 67.4 °F 30.05 in SSW 0.2 mph 1.2 mph 94 % 0.00 in
02:28 69.2 °F 67.4 °F 30.04 in Calm     94 % 0.00 in
02:33 69.2 °F 67.4 °F 30.04 in SSW 0.3 mph 3.5 mph 94 % 0.00 in
02:39 69.2 °F 67.4 °F 30.04 in SE 0.4 mph 2.3 mph 94 % 0.00 in
02:44 69.2 °F 67.4 °F 30.04 in SSW 0.5 mph 2.3 mph 94 % 0.00 in
02:49 69.3 °F 67.5 °F 30.04 in SSW 0.8 mph 2.3 mph 94 % 0.00 in
02:54 69.3 °F 67.5 °F 30.03 in Calm   1.2 mph 94 % 0.00 in
02:59 69.3 °F 67.5 °F 30.03 in SW 0.9 mph 2.3 mph 94 % 0.00 in
03:04 69.3 °F 67.5 °F 30.04 in WSW 1.8 mph 3.5 mph 94 % 0.00 in
03:09 69.3 °F 67.5 °F 30.03 in SW 0.9 mph 2.3 mph 94 % 0.00 in
03:14 69.4 °F 67.9 °F 30.03 in SW 0.4 mph 2.3 mph 95 % 0.00 in
03:19 69.4 °F 67.9 °F 30.03 in SW 0.3 mph 3.5 mph 95 % 0.00 in
03:24 69.5 °F 68.0 °F 30.03 in SW 1.9 mph 3.5 mph 95 % 0.00 in
03:30 69.5 °F 68.0 °F 30.03 in SSW 1.9 mph 3.5 mph 95 % 0.00 in
03:35 69.6 °F 68.1 °F 30.03 in WSW 0.4 mph 2.3 mph 95 % 0.00 in
03:40 69.7 °F 68.2 °F 30.03 in SSW 0.2 mph 3.5 mph 95 % 0.00 in
03:45 69.7 °F 68.2 °F 30.03 in SSW 1.5 mph 3.5 mph 95 % 0.00 in
03:50 69.7 °F 68.2 °F 30.03 in SSW 2.0 mph 4.6 mph 95 % 0.00 in
03:55 69.8 °F 68.3 °F 30.03 in SW 2.2 mph 4.6 mph 95 % 0.00 in
04:00 69.8 °F 68.3 °F 30.03 in SSW 0.1 mph 1.2 mph 95 % 0.00 in
04:05 69.8 °F 68.3 °F 30.03 in WSW 0.5 mph 2.3 mph 95 % 0.00 in
04:10 69.9 °F 68.4 °F 30.03 in South 0.8 mph 2.0 mph 95 % 0.00 in
04:15 69.9 °F 68.4 °F 30.03 in SE 1.1 mph 3.5 mph 95 % 0.00 in
04:20 69.9 °F 68.4 °F 30.02 in SSW 0.9 mph 4.0 mph 95 % 0.00 in
04:25 70.0 °F 68.5 °F 30.03 in SW 0.7 mph 3.5 mph 95 % 0.00 in
04:30 70.0 °F 68.5 °F 30.02 in SSW 2.1 mph 6.9 mph 95 % 0.00 in
04:41 70.1 °F 68.6 °F 30.02 in SW 1.0 mph 3.0 mph 95 % 0.00 in
04:46 70.1 °F 68.6 °F 30.02 in SW 2.0 mph 4.0 mph 95 % 0.00 in
04:51 70.1 °F 68.6 °F 30.02 in SSW 3.0 mph 6.0 mph 95 % 0.00 in
04:56 70.1 °F 68.6 °F 30.02 in SSW 1.0 mph 5.0 mph 95 % 0.00 in
05:01 70.1 °F 68.6 °F 30.02 in Calm   4.6 mph 95 % 0.00 in
05:06 70.2 °F 68.7 °F 30.02 in SSW 3.5 mph 8.1 mph 95 % 0.00 in
05:11 70.2 °F 68.7 °F 30.02 in SW 0.7 mph 2.0 mph 95 % 0.00 in
05:16 70.2 °F 68.7 °F 30.02 in WSW 1.8 mph 3.5 mph 95 % 0.00 in
05:21 70.2 °F 68.7 °F 30.02 in SW 0.2 mph 1.2 mph 95 % 0.00 in
05:26 70.2 °F 68.7 °F 30.03 in SW 1.4 mph 4.0 mph 95 % 0.00 in
05:31 70.3 °F 68.8 °F 30.03 in SW 0.2 mph 1.2 mph 95 % 0.00 in
05:36 70.3 °F 68.8 °F 30.03 in SW 0.4 mph 2.0 mph 95 % 0.00 in
05:41 70.3 °F 68.8 °F 30.02 in ENE 0.6 mph 2.3 mph 95 % 0.00 in
05:46 70.3 °F 68.8 °F 30.02 in SSW 0.5 mph 1.2 mph 95 % 0.00 in
05:52 70.3 °F 68.8 °F 30.02 in SSW 0.1 mph 2.0 mph 95 % 0.00 in
05:57 70.3 °F 68.8 °F 30.02 in SSW 1.1 mph 3.5 mph 95 % 0.00 in
06:02 70.3 °F 68.8 °F 30.02 in SSW 0.3 mph 2.3 mph 95 % 0.00 in
06:07 70.4 °F 68.9 °F 30.03 in SW 4.0 mph 4.0 mph 95 % 0.00 in
06:12 70.4 °F 68.9 °F 30.03 in WSW 0.9 mph 2.3 mph 95 % 0.00 in
06:17 70.4 °F 68.9 °F 30.03 in SW 1.8 mph 3.5 mph 95 % 0.00 in
06:22 70.4 °F 68.9 °F 30.02 in SSW 0.2 mph 1.2 mph 95 % 0.00 in
06:27 70.4 °F 68.9 °F 30.03 in West 0.6 mph 2.3 mph 95 % 0.00 in
06:32 70.4 °F 68.9 °F 30.03 in Calm   2.3 mph 95 % 0.00 in
06:37 70.4 °F 68.9 °F 30.03 in West 0.2 mph 1.2 mph 95 % 0.00 in
06:48 70.4 °F 68.9 °F 30.03 in WSW 0.1 mph 2.3 mph 95 % 0.00 in
06:53 70.4 °F 68.9 °F 30.03 in WSW 0.2 mph 1.2 mph 95 % 0.00 in
06:58 70.4 °F 68.9 °F 30.03 in WSW 0.3 mph 2.0 mph 95 % 0.00 in
07:03 70.5 °F 69.3 °F 30.03 in Calm   1.2 mph 96 % 0.00 in
07:08 70.6 °F 69.4 °F 30.04 in Calm   1.0 mph 96 % 0.00 in
07:13 70.7 °F 69.5 °F 30.03 in South 0.5 mph 1.2 mph 96 % 0.00 in
07:18 70.8 °F 69.6 °F 30.03 in South 0.1 mph 1.2 mph 96 % 0.00 in
07:23 70.9 °F 69.7 °F 30.03 in South 0.6 mph 1.2 mph 96 % 0.00 in
07:28 71.0 °F 69.8 °F 30.03 in SW 0.2 mph 1.2 mph 96 % 0.00 in
07:34 71.2 °F 70.0 °F 30.03 in SW 0.4 mph 2.0 mph 96 % 0.00 in
07:39 71.3 °F 70.1 °F 30.03 in SW 3.3 mph 4.6 mph 96 % 0.00 in
07:44 71.4 °F 70.2 °F 30.03 in SSW 1.7 mph 3.5 mph 96 % 0.00 in
07:49 71.5 °F 70.3 °F 30.03 in SW 1.0 mph 3.5 mph 96 % 0.00 in
07:54 71.6 °F 70.4 °F 30.03 in SSW 0.8 mph 3.5 mph 96 % 0.00 in
07:59 71.7 °F 70.5 °F 30.03 in SW 0.3 mph 2.0 mph 96 % 0.00 in
08:04 71.8 °F 70.6 °F 30.03 in SW 0.6 mph 2.0 mph 96 % 0.00 in
08:09 71.8 °F 70.6 °F 30.03 in SW 0.9 mph 2.3 mph 96 % 0.00 in
08:14 71.9 °F 70.4 °F 30.03 in SW 1.1 mph 4.0 mph 95 % 0.00 in
08:19 72.1 °F 70.6 °F 30.03 in West 0.6 mph 2.0 mph 95 % 0.00 in
08:24 72.3 °F 71.1 °F 30.03 in SW 3.7 mph 8.0 mph 96 % 0.00 in
08:30 72.6 °F 71.1 °F 30.03 in SW 3.4 mph 3.5 mph 95 % 0.00 in
08:35 73.0 °F 71.5 °F 30.03 in SSE 2.2 mph 3.5 mph 95 % 0.00 in
08:40 73.3 °F 71.8 °F 30.03 in WSW 2.1 mph 8.1 mph 95 % 0.00 in
08:45 73.6 °F 71.8 °F 30.04 in WSW 5.3 mph 10.4 mph 94 % 0.00 in
08:50 74.0 °F 71.8 °F 30.04 in West 5.8 mph 11.0 mph 93 % 0.00 in
08:55 74.4 °F 71.9 °F 30.04 in WSW 6.6 mph 11.5 mph 92 % 0.00 in
09:00 74.7 °F 71.9 °F 30.04 in WSW 4.5 mph 8.1 mph 91 % 0.00 in
09:05 74.9 °F 72.1 °F 30.04 in WSW 3.6 mph 4.6 mph 91 % 0.00 in
09:10 75.2 °F 72.1 °F 30.05 in SSW 0.6 mph 3.5 mph 90 % 0.00 in
09:15 75.6 °F 72.5 °F 30.05 in SW 4.2 mph 9.2 mph 90 % 0.00 in
09:20 75.9 °F 72.1 °F 30.05 in SSW 4.1 mph 6.9 mph 88 % 0.00 in
09:25 76.2 °F 72.0 °F 30.04 in SW 2.3 mph 6.9 mph 87 % 0.00 in
09:30 76.5 °F 72.3 °F 30.05 in West 2.1 mph 6.9 mph 87 % 0.00 in
09:35 76.7 °F 72.2 °F 30.05 in SSW 1.4 mph 6.9 mph 86 % 0.00 in
09:41 76.8 °F 71.9 °F 30.04 in SW 3.0 mph 8.0 mph 85 % 0.00 in
09:46 76.9 °F 72.1 °F 30.05 in SW 5.0 mph 9.0 mph 85 % 0.00 in
09:51 77.1 °F 72.2 °F 30.05 in SW 3.0 mph 7.0 mph 85 % 0.00 in
09:56 77.2 °F 72.0 °F 30.05 in SW 2.0 mph 7.0 mph 84 % 0.00 in
10:01 77.4 °F 72.2 °F 30.04 in SW 6.7 mph 8.0 mph 84 % 0.00 in
10:06 77.6 °F 72.4 °F 30.04 in WSW 3.0 mph 9.0 mph 84 % 0.00 in
10:11 77.8 °F 72.2 °F 30.04 in SW 5.0 mph 7.0 mph 83 % 0.00 in
10:16 78.0 °F 72.1 °F 30.04 in WSW 7.0 mph 12.0 mph 82 % 0.00 in
10:21 78.2 °F 71.9 °F 30.04 in SW 3.0 mph 10.0 mph 81 % 0.00 in
10:31 78.5 °F 72.2 °F 30.04 in SW 3.0 mph 9.0 mph 81 % 0.00 in
10:36 78.5 °F 71.8 °F 30.05 in WSW 5.0 mph 9.0 mph 80 % 0.00 in
10:41 78.6 °F 71.9 °F 30.04 in SW 2.0 mph 7.0 mph 80 % 0.00 in
10:46 78.7 °F 72.0 °F 30.05 in SW 1.1 mph 2.0 mph 80 % 0.00 in
10:51 78.7 °F 72.4 °F 30.04 in WSW 0.2 mph 2.0 mph 81 % 0.00 in
10:56 78.8 °F 72.1 °F 30.05 in SSW 4.2 mph 6.9 mph 80 % 0.00 in
11:01 78.9 °F 72.2 °F 30.04 in SW 3.1 mph 5.0 mph 80 % 0.00 in
11:06 79.0 °F 72.7 °F 30.04 in SW 0.1 mph 1.2 mph 81 % 0.00 in
11:11 79.2 °F 72.5 °F 30.04 in SW 3.0 mph 4.6 mph 80 % 0.00 in
11:16 79.3 °F 72.2 °F 30.04 in SSW 3.6 mph 4.6 mph 79 % 0.00 in
11:21 79.5 °F 72.4 °F 30.04 in West 0.9 mph 3.5 mph 79 % 0.00 in
11:26 79.7 °F 72.6 °F 30.04 in WSW 0.2 mph 5.8 mph 79 % 0.00 in
11:31 79.9 °F 72.4 °F 30.03 in ESE 3.0 mph 6.9 mph 78 % 0.00 in
11:37 80.1 °F 72.6 °F 30.03 in South 0.6 mph 3.5 mph 78 % 0.00 in
11:42 80.2 °F 72.3 °F 30.03 in SSW 1.1 mph 3.5 mph 77 % 0.00 in
11:47 80.4 °F 72.1 °F 30.03 in SSE 1.8 mph 3.5 mph 76 % 0.00 in
11:52 80.6 °F 71.9 °F 30.02 in South 0.5 mph 4.6 mph 75 % 0.00 in
11:57 80.7 °F 72.0 °F 30.03 in WSW 2.6 mph 5.8 mph 75 % 0.00 in
12:02 80.9 °F 72.2 °F 30.02 in SSW 1.2 mph 3.5 mph 75 % 0.00 in
12:07 81.1 °F 72.4 °F 30.02 in WSW 3.8 mph 8.1 mph 75 % 0.00 in
12:12 81.1 °F 72.0 °F 30.02 in WSW 0.6 mph 2.3 mph 74 % 0.00 in
12:17 81.1 °F 72.0 °F 30.02 in WSW 4.3 mph 6.9 mph 74 % 0.00 in
12:22 81.1 °F 72.4 °F 30.02 in SW 2.7 mph 6.9 mph 75 % 0.00 in
12:28 81.1 °F 72.8 °F 30.02 in SW 0.7 mph 3.0 mph 76 % 0.00 in
12:33 81.1 °F 72.8 °F 30.02 in SSW 2.1 mph 4.0 mph 76 % 0.00 in
12:38 81.2 °F 72.1 °F 30.02 in WSW 4.5 mph 10.4 mph 74 % 0.00 in
12:43 81.2 °F 72.1 °F 30.02 in SSW 2.8 mph 5.0 mph 74 % 0.00 in
12:48 81.2 °F 72.5 °F 30.03 in WSW 1.9 mph 3.5 mph 75 % 0.00 in
12:53 81.3 °F 72.6 °F 30.02 in WSW 2.6 mph 6.9 mph 75 % 0.00 in
12:58 81.4 °F 72.3 °F 30.02 in SW 1.0 mph 4.0 mph 74 % 0.00 in
13:03 81.5 °F 72.8 °F 30.02 in WSW 2.6 mph 3.5 mph 75 % 0.00 in
13:08 81.7 °F 73.0 °F 30.02 in SW 1.9 mph 6.9 mph 75 % 0.00 in
13:13 81.9 °F 73.2 °F 30.02 in ESE 2.2 mph 3.5 mph 75 % 0.00 in
13:19 82.0 °F 72.5 °F 30.01 in WSW 4.2 mph 6.0 mph 73 % 0.00 in
13:24 82.0 °F 72.5 °F 30.01 in South 1.1 mph 5.8 mph 73 % 0.00 in
13:29 81.9 °F 72.4 °F 30.01 in SW 2.7 mph 8.1 mph 73 % 0.00 in
13:34 81.9 °F 72.8 °F 30.01 in WSW 1.0 mph 3.5 mph 74 % 0.00 in
13:39 81.9 °F 72.4 °F 30.02 in SW 1.0 mph 2.3 mph 73 % 0.00 in
13:44 81.9 °F 72.8 °F 30.01 in WSW 4.5 mph 5.8 mph 74 % 0.00 in
13:49 81.9 °F 72.4 °F 30.02 in WSW 3.5 mph 6.9 mph 73 % 0.00 in
13:54 81.9 °F 72.0 °F 30.01 in SW 3.9 mph 6.9 mph 72 % 0.00 in
13:59 81.9 °F 72.4 °F 30.01 in SSW 4.2 mph 5.8 mph 73 % 0.00 in
14:04 82.0 °F 72.9 °F 30.01 in WSW 1.3 mph 2.3 mph 74 % 0.00 in
14:10 82.1 °F 72.2 °F 30.00 in SE 0.7 mph 2.3 mph 72 % 0.00 in
14:15 82.1 °F 73.0 °F 30.00 in SW 1.2 mph 3.0 mph 74 % 0.00 in
14:20 82.3 °F 73.2 °F 30.00 in SSE 2.3 mph 3.5 mph 74 % 0.00 in
14:25 82.2 °F 73.5 °F 30.00 in SSE 1.3 mph 3.5 mph 75 % 0.00 in
14:30 82.2 °F 73.9 °F 30.00 in WSW 2.8 mph 5.8 mph 76 % 0.00 in
14:35 82.3 °F 73.6 °F 30.00 in SSW 4.3 mph 5.8 mph 75 % 0.00 in
14:40 82.4 °F 74.1 °F 30.00 in South 1.4 mph 3.5 mph 76 % 0.00 in
14:45 82.4 °F 73.7 °F 30.00 in WSW 1.0 mph 3.5 mph 75 % 0.00 in
14:50 82.6 °F 73.9 °F 29.99 in South 0.7 mph 3.5 mph 75 % 0.00 in
14:55 82.8 °F 73.7 °F 29.99 in South 3.5 mph 5.8 mph 74 % 0.00 in
15:00 83.0 °F 73.4 °F 29.99 in SSE 2.4 mph 4.6 mph 73 % 0.00 in
15:06 82.9 °F 73.0 °F 29.99 in South 3.0 mph 6.0 mph 72 % 0.00 in
15:11 82.8 °F 73.3 °F 29.99 in South 2.0 mph 5.0 mph 73 % 0.00 in
15:16 82.9 °F 73.4 °F 29.99 in Calm   7.0 mph 73 % 0.00 in
15:21 82.7 °F 73.2 °F 29.99 in South 1.0 mph 6.0 mph 73 % 0.00 in
15:26 82.5 °F 73.4 °F 29.99 in South 1.0 mph 7.0 mph 74 % 0.00 in
15:31 82.4 °F 73.3 °F 29.99 in SSW 1.0 mph 3.0 mph 74 % 0.00 in
15:36 82.3 °F 73.2 °F 29.99 in Calm   2.0 mph 74 % 0.00 in
15:41 82.3 °F 73.6 °F 29.99 in South 1.0 mph 4.0 mph 75 % 0.00 in
15:46 82.3 °F 73.6 °F 29.98 in South 2.0 mph 6.0 mph 75 % 0.00 in
15:51 82.3 °F 73.2 °F 29.99 in SSE 1.0 mph 8.0 mph 74 % 0.00 in
15:56 82.2 °F 73.5 °F 29.98 in SSE 1.0 mph 8.0 mph 75 % 0.00 in
16:01 82.2 °F 73.1 °F 29.98 in SE 3.4 mph 5.0 mph 74 % 0.00 in
16:06 81.9 °F 72.8 °F 29.98 in SSE 1.8 mph 5.8 mph 74 % 0.00 in
16:11 81.7 °F 73.0 °F 29.98 in SSW 1.6 mph 3.5 mph 75 % 0.00 in
16:16 81.7 °F 73.0 °F 29.98 in SE 0.2 mph 2.3 mph 75 % 0.00 in
16:21 81.6 °F 72.9 °F 29.98 in SSE 1.8 mph 3.5 mph 75 % 0.00 in
16:26 81.3 °F 73.0 °F 29.98 in South 0.7 mph 2.3 mph 76 % 0.00 in
16:31 81.2 °F 73.3 °F 29.98 in WSW 0.4 mph 2.3 mph 77 % 0.00 in
16:36 81.2 °F 72.9 °F 29.98 in SSW 0.8 mph 4.6 mph 76 % 0.00 in
16:41 81.2 °F 73.3 °F 29.98 in South 3.2 mph 4.0 mph 77 % 0.00 in
16:46 81.1 °F 72.8 °F 29.98 in South 0.3 mph 2.3 mph 76 % 0.00 in
16:52 81.0 °F 72.7 °F 29.97 in SSW 0.3 mph 2.3 mph 76 % 0.00 in
16:57 80.9 °F 73.0 °F 29.98 in SW 0.4 mph 3.5 mph 77 % 0.00 in
17:07 80.7 °F 72.8 °F 29.97 in SSE 1.2 mph 3.5 mph 77 % 0.00 in
17:12 80.6 °F 72.7 °F 29.97 in SW 1.7 mph 6.0 mph 77 % 0.00 in
17:17 80.5 °F 72.6 °F 29.97 in SSE 1.2 mph 2.3 mph 77 % 0.00 in
17:22 80.2 °F 72.7 °F 29.98 in SE 1.8 mph 6.0 mph 78 % 0.00 in
17:32 79.9 °F 72.8 °F 29.98 in WSW 1.1 mph 2.3 mph 79 % 0.00 in
17:37 79.7 °F 72.6 °F 29.98 in SSE 1.4 mph 2.3 mph 79 % 0.00 in
17:43 79.6 °F 72.1 °F 29.98 in SSE 0.2 mph 5.8 mph 78 % 0.00 in
17:48 79.4 °F 72.3 °F 29.98 in ESE 1.1 mph 3.5 mph 79 % 0.00 in
17:53 79.2 °F 72.1 °F 29.98 in South 1.2 mph 3.5 mph 79 % 0.00 in
17:58 79.1 °F 72.4 °F 29.98 in South 0.3 mph 2.3 mph 80 % 0.00 in
18:03 78.9 °F 72.2 °F 29.98 in SSE 0.3 mph 2.3 mph 80 % 0.00 in
18:08 78.7 °F 72.0 °F 29.98 in SE 0.9 mph 3.5 mph 80 % 0.00 in
18:13 78.5 °F 72.2 °F 29.98 in SE 3.6 mph 10.4 mph 81 % 0.00 in
18:18 78.4 °F 72.4 °F 29.98 in SE 0.3 mph 2.3 mph 82 % 0.00 in
18:23 78.4 °F 72.4 °F 29.98 in South 0.8 mph 3.5 mph 82 % 0.00 in
18:29 78.2 °F 72.3 °F 29.98 in SE 0.9 mph 2.3 mph 82 % 0.00 in
18:34 78.0 °F 72.4 °F 29.98 in SW 1.5 mph 3.5 mph 83 % 0.00 in
18:39 77.9 °F 72.3 °F 29.98 in South 1.1 mph 2.3 mph 83 % 0.00 in
18:44 77.8 °F 72.2 °F 29.98 in SSE 1.2 mph 5.8 mph 83 % 0.00 in
18:49 77.5 °F 72.3 °F 29.98 in SSW 0.6 mph 3.5 mph 84 % 0.00 in
18:54 77.4 °F 72.2 °F 29.98 in South 0.5 mph 3.5 mph 84 % 0.00 in
18:59 77.2 °F 72.0 °F 29.98 in South 1.1 mph 2.3 mph 84 % 0.00 in
19:04 77.1 °F 71.9 °F 29.98 in South 0.2 mph 1.2 mph 84 % 0.00 in
19:09 77.0 °F 72.1 °F 29.98 in SE 0.7 mph 3.5 mph 85 % 0.00 in
19:14 76.9 °F 72.0 °F 29.99 in South 1.0 mph 3.5 mph 85 % 0.00 in
19:25 76.7 °F 72.2 °F 29.99 in SSW 1.3 mph 4.6 mph 86 % 0.00 in
19:30 76.6 °F 72.1 °F 30.00 in SSW 0.6 mph 3.5 mph 86 % 0.00 in
19:35 76.6 °F 72.1 °F 30.00 in SE 0.1 mph 1.2 mph 86 % 0.00 in
19:40 76.5 °F 72.0 °F 30.00 in SSE 0.9 mph 3.5 mph 86 % 0.00 in
19:45 76.4 °F 72.2 °F 30.00 in South 0.5 mph 2.3 mph 87 % 0.00 in
19:50 76.4 °F 72.2 °F 30.00 in SSE 0.4 mph 1.2 mph 87 % 0.00 in
19:55 76.3 °F 72.1 °F 30.00 in SSW 2.1 mph 4.0 mph 87 % 0.00 in
20:00 76.2 °F 72.0 °F 30.00 in SSE 1.2 mph 2.3 mph 87 % 0.00 in
20:05 76.2 °F 72.0 °F 30.00 in SSE 1.0 mph 2.3 mph 87 % 0.00 in
20:10 76.1 °F 71.9 °F 30.01 in Calm   2.0 mph 87 % 0.00 in
20:15 76.1 °F 72.3 °F 30.01 in SSE 1.0 mph 4.0 mph 88 % 0.00 in
20:20 76.0 °F 72.2 °F 30.01 in SSE 1.0 mph 4.0 mph 88 % 0.00 in
20:26 76.0 °F 72.2 °F 30.01 in SSE 2.0 mph 6.0 mph 88 % 0.00 in
20:30 75.9 °F 72.1 °F 30.01 in South 2.0 mph 6.0 mph 88 % 0.00 in
20:35 75.9 °F 72.1 °F 30.01 in Calm   7.0 mph 88 % 0.00 in
20:41 75.8 °F 72.0 °F 30.01 in SSW 1.8 mph 3.0 mph 88 % 0.00 in
20:46 75.8 °F 72.3 °F 30.01 in South 0.6 mph 3.5 mph 89 % 0.00 in
20:51 75.7 °F 72.2 °F 30.01 in WSW 1.2 mph 3.0 mph 89 % 0.00 in
20:56 75.7 °F 72.2 °F 30.01 in ESE 1.1 mph 3.0 mph 89 % 0.00 in
21:01 75.6 °F 72.1 °F 30.00 in SW 0.2 mph 1.2 mph 89 % 0.00 in
21:06 75.6 °F 72.1 °F 30.00 in South 0.2 mph 6.9 mph 89 % 0.00 in
21:11 75.4 °F 71.9 °F 30.00 in South 1.5 mph 3.5 mph 89 % 0.00 in
21:16 75.4 °F 71.9 °F 30.00 in South 1.1 mph 3.5 mph 89 % 0.00 in
21:21 75.3 °F 72.2 °F 30.00 in South 2.3 mph 3.5 mph 90 % 0.00 in
21:26 75.2 °F 72.1 °F 30.00 in SSE 0.6 mph 2.3 mph 90 % 0.00 in
21:32 75.2 °F 72.1 °F 30.00 in SE 0.7 mph 2.3 mph 90 % 0.00 in
21:37 75.1 °F 72.0 °F 30.00 in SSE 0.8 mph 3.5 mph 90 % 0.00 in
21:42 75.1 °F 72.0 °F 30.00 in SSE 0.4 mph 1.2 mph 90 % 0.00 in
21:47 75.0 °F 71.9 °F 30.00 in WSW 0.6 mph 2.0 mph 90 % 0.00 in
21:52 75.0 °F 71.9 °F 30.00 in SSE 1.1 mph 2.3 mph 90 % 0.00 in
21:57 74.9 °F 71.8 °F 30.00 in Calm   1.2 mph 90 % 0.00 in
22:02 74.9 °F 71.8 °F 30.00 in SE 1.5 mph 3.5 mph 90 % 0.00 in
22:07 74.9 °F 71.8 °F 30.00 in SSE 1.1 mph 2.3 mph 90 % 0.00 in
22:12 74.9 °F 71.8 °F 30.00 in SSE 0.7 mph 3.5 mph 90 % 0.00 in
22:17 74.9 °F 71.8 °F 30.00 in South 1.3 mph 2.3 mph 90 % 0.00 in
22:23 74.9 °F 71.8 °F 30.01 in SW 2.7 mph 5.8 mph 90 % 0.00 in
22:28 74.9 °F 71.8 °F 30.01 in SW 1.8 mph 3.5 mph 90 % 0.00 in
22:33 74.9 °F 71.8 °F 30.01 in SW 0.8 mph 3.5 mph 90 % 0.00 in
22:43 74.8 °F 71.7 °F 30.01 in SW 2.2 mph 4.6 mph 90 % 0.00 in
22:48 74.8 °F 71.7 °F 30.01 in SW 0.9 mph 3.5 mph 90 % 0.00 in
22:53 74.8 °F 71.7 °F 30.01 in South 0.8 mph 3.5 mph 90 % 0.00 in
22:58 74.8 °F 71.7 °F 30.00 in SSE 1.8 mph 3.0 mph 90 % 0.00 in
23:03 74.8 °F 71.7 °F 30.01 in SW 0.5 mph 2.0 mph 90 % 0.00 in
23:08 74.7 °F 71.6 °F 30.00 in SSE 0.5 mph 3.0 mph 90 % 0.00 in
23:14 74.7 °F 71.6 °F 30.00 in SW 1.9 mph 3.5 mph 90 % 0.00 in
23:19 74.7 °F 71.6 °F 30.00 in SW 1.1 mph 2.3 mph 90 % 0.00 in
23:24 74.6 °F 71.5 °F 30.01 in Calm   1.2 mph 90 % 0.00 in
23:29 74.6 °F 71.5 °F 30.01 in Calm   1.2 mph 90 % 0.00 in
23:34 74.5 °F 71.4 °F 30.00 in SSW 0.1 mph 1.2 mph 90 % 0.00 in
23:39 74.5 °F 71.4 °F 30.00 in SW 1.2 mph 3.5 mph 90 % 0.00 in
23:44 74.4 °F 71.6 °F 30.00 in Calm     91 % 0.00 in
23:49 74.3 °F 71.5 °F 30.00 in SW 1.1 mph 3.0 mph 91 % 0.00 in
23:54 74.3 °F 71.5 °F 30.00 in SW 0.2 mph 1.2 mph 91 % 0.00 in
23:59 74.2 °F 71.4 °F 30.01 in SW 0.2 mph 1.2 mph 91 % 0.00 in
Crab Meadow Weather
Compliments of Weather Underground - 3 mb

Script developed by  Jim McMurry - jmcmurry@mwt.net Adapted for the template by  Wim van der Kuil - Leuven-Template.eu

Weather Terms: Warning - A warning is issued when a hazardous weather or hydrologic event is occurring, imminent or likely. A warning means weather conditions pose a threat to life or property. People in the path of the storm need to take protective action.